Location: Drawsko Pomorskie
(53.5317°N, 15.8111°E)
Time: 16:07:08
(UTC+01:00)

Envisat - Pass Details

Date: 27 October 2019
Orbit: 764 x 766 km, 98.1° (Epoch: 13 November)

Event Time Altitude Azimuth Distance (km) Brightness Sun altitude
Rises 19:11:48 0° 208° (SSW) 3,224 6.5 -23.8°
Reaches altitude 10° 19:14:42 10° 225° (SW) 2,303 5.9 -24.2°
Maximum altitude 19:18:22 20° 272° (W) 1,732 5.6 -24.8°
Drops below altitude 10° 19:22:03 10° 318° (NW) 2,315 6.2 -25.3°
Sets 19:25:00 0° 336° (NNW) 3,246 6.8 -25.7°
